CW4167 Weather Reports


time (UTC)temp
C
wind
direction
speed
KPH
gust
KPH
rain 1hr
cm
rain 24hr
cm
rain mn
cm
humidity
%
barometer
mb
20260502162207 24 207 20.9 35.4 0.00 0.00 0.00 36 1011.3
20260502160705 24 191 20.9 32.2 0.00 0.00 0.00 36 1011.3
20260502152204 25 216 16.1 29.0 0.00 0.00 0.00 38 1011.7
20260502151704 25 233 14.5 27.4 0.00 0.00 0.00 37 1011.9
20260502151205 25 207 20.9 27.4 0.00 0.00 0.00 37 1012.0
20260502150705 25 216 25.7 40.2 0.00 0.00 0.00 36 1012.0
20260502150205 25 212 17.7 25.7 0.00 0.00 0.00 38 1012.0
20260502130704 24 203 25.7 37.0 0.00 0.00 0.00 38 1013.2
20260502130205 24 181 17.7 33.8 0.00 0.00 0.00 38 1013.3
20260502121704 23 190 19.3 32.2 0.00 0.00 0.00 40 1013.9
20260502115706 23 190 22.5 33.8 0.00 0.00 0.00 40 1014.1
20260502115206 23 185 27.4 40.2 0.00 0.00 0.00 38 1014.3
20260502114206 23 209 24.1 32.2 0.00 0.00 0.00 39 1014.4
20260502112706 23 193 16.1 35.4 0.00 0.00 0.00 43 1014.4
20260502112208 23 200 19.3 29.0 0.00 0.00 0.00 41 1014.5
20260502111706 23 205 22.5 32.2 0.00 0.00 0.00 41 1014.7
20260502105705 23 163 14.5 27.4 0.00 0.00 0.00 43 1014.9
20260502104706 23 169 20.9 29.0 0.00 0.00 0.00 44 1014.9
20260502104207 23 225 11.3 22.5 0.00 0.00 0.00 43 1015.0
20260502103705 23 206 19.3 32.2 0.00 0.00 0.00 42 1015.0
20260502103206 23 189 16.1 25.7 0.00 0.00 0.00 44 1015.0
20260502102706 23 211 9.7 25.7 0.00 0.00 0.00 45 1015.0
20260502102206 22 209 11.3 32.2 0.00 0.00 0.00 44 1015.0
20260502101206 22 196 14.5 32.2 0.00 0.00 0.00 46 1015.1
20260502100706 22 172 19.3 32.2 0.00 0.00 0.00 45 1015.2
20260502091205 21 175 16.1 25.7 0.00 0.00 0.00 50 1015.7
20260502090706 21 182 12.9 24.1 0.00 0.00 0.00 53 1015.7
20260502071206 17 181 19.3 32.2 0.00 0.00 0.00 58 1016.4
20260502070705 17 177 14.5 24.1 0.00 0.00 0.00 58 1016.4
20260502070208 17 159 14.5 22.5 0.00 0.00 0.00 60 1016.4
20260502065705 17 177 14.5 25.7 0.00 0.00 0.00 59 1016.5
20260502065205 16 183 19.3 24.1 0.00 0.00 0.00 59 1016.5
20260502064706 16 186 20.9 27.4 0.00 0.00 0.00 59 1016.5
20260502062707 16 175 19.3 25.7 0.00 0.00 0.00 58 1016.6
20260502061705 16 167 20.9 27.4 0.00 0.00 0.00 57 1016.6
20260502060706 16 170 16.1 32.2 0.00 0.00 0.00 59 1016.7
20260502060205 15 175 17.7 25.7 0.00 0.00 0.00 59 1016.8
20260502055706 15 169 20.9 27.4 0.00 0.00 0.00 59 1016.7
20260502055205 15 169 12.9 29.0 0.00 0.00 0.00 60 1016.7
20260502054705 15 170 16.1 25.7 0.00 0.00 0.00 60 1016.7
20260502054206 15 160 14.5 29.0 0.00 0.00 0.00 61 1016.8
20260502053706 15 162 16.1 27.4 0.00 0.00 0.00 61 1016.8
20260502053205 14 159 20.9 27.4 0.00 0.00 0.00 61 1016.9
20260502052706 14 168 19.3 27.4 0.00 0.00 0.00 62 1016.9
20260502052207 13 168 20.9 29.0 0.00 0.00 0.00 63 1017.0
20260502050707 12 164 19.3 24.1 0.00 0.00 0.00 65 1017.1
20260502050205 12 166 14.5 25.7 0.00 0.00 0.00 65 1017.1
20260502044206 12 164 16.1 22.5 0.00 0.00 0.00 65 1017.3
20260502043705 12 170 11.3 20.9 0.00 0.00 0.00 65 1017.4
20260502043206 12 165 11.3 20.9 0.00 0.00 0.00 66 1017.4
20260502042205 12 167 16.1 22.5 0.00 0.00 0.00 66 1017.5
20260502041205 11 162 12.9 22.5 0.00 0.00 0.00 67 1017.5
20260502035205 11 169 14.5 24.1 0.00 0.00 0.00 67 1017.8
20260502033706 11 158 12.9 25.7 0.00 0.00 0.00 66 1017.9
20260502031205 11 170 16.1 24.1 0.00 0.00 0.00 64 1018.1
20260502030705 12 158 16.1 25.7 0.00 0.00 0.00 63 1018.2
20260502025706 12 162 16.1 27.4 0.00 0.00 0.00 62 1018.3
20260502025205 12 171 16.1 27.4 0.00 0.00 0.00 62 1018.3
20260502024707 12 157 19.3 25.7 0.00 0.00 0.00 62 1018.3
20260502023705 12 161 17.7 24.1 0.00 0.00 0.00 62 1018.4
20260502023205 12 165 14.5 25.7 0.00 0.00 0.00 62 1018.5
20260502015707 11 160 14.5 24.1 0.00 0.00 0.00 62 1019.0
20260502013705 11 161 16.1 24.1 0.00 0.00 0.00 62 1019.2
20260502011705 11 169 11.3 20.9 0.00 0.00 0.00 63 1019.6
20260502011206 11 174 9.7 16.1 0.00 0.00 0.00 63 1019.6
20260502005706 11 177 8.0 12.9 0.00 0.00 0.00 64 1019.6
20260502005207 11 176 9.7 12.9 0.00 0.00 0.00 63 1019.7
20260502003706 10 158 9.7 11.3 0.00 0.00 0.00 63 1019.8
20260502003207 10 161 9.7 12.9 0.00 0.00 0.00 63 1020.1
20260502002205 11 181 8.0 12.9 0.00 0.00 0.00 63 1020.1
20260502000205 11 164 8.0 16.1 0.00 0.00 0.00 62 1020.1
20260501235705 11 163 8.0 12.9 0.00 0.00 0.00 61 1020.1
20260501234707 11 165 9.7 12.9 0.00 0.00 0.00 61 1020.2
20260501234206 11 167 9.7 12.9 0.00 0.00 0.00 61 1020.2
20260501233207 11 166 8.0 9.7 0.00 0.00 0.00 60 1020.3
20260501232708 11 173 9.7 11.3 0.00 0.00 0.00 60 1020.3
20260501231707 12 168 8.0 11.3 0.00 0.00 0.00 59 1020.4
20260501231205 12 159 9.7 11.3 0.00 0.00 0.00 59 1020.5
20260501230706 12 162 8.0 9.7 0.00 0.00 0.00 59 1020.5
20260501230207 12 176 8.0 12.9 0.00 0.00 0.00 59 1020.6
20260501225705 12 164 9.7 16.1 0.00 0.00 0.00 58 1020.7
20260501225205 12 164 9.7 12.9 0.00 0.00 0.00 58 1020.7
20260501223205 12 152 11.3 14.5 0.00 0.00 0.00 57 1020.8
20260501222206 12 172 11.3 20.9 0.00 0.00 0.00 57 1020.9
20260501221205 12 158 11.3 14.5 0.00 0.00 0.00 57 1020.9
20260501220708 12 167 12.9 20.9 0.00 0.00 0.00 58 1020.9
20260501215707 12 166 8.0 12.9 0.00 0.00 0.00 58 1020.9
20260501214206 11 145 14.5 22.5 0.00 0.00 0.00 59 1020.9
20260501213706 11 148 11.3 16.1 0.00 0.00 0.00 59 1021.0
20260501213205 11 151 14.5 16.1 0.00 0.00 0.00 59 1021.1
20260501211707 12 136 11.3 12.9 0.00 0.00 0.00 57 1021.2
20260501211206 12 140 11.3 12.9 0.00 0.00 0.00 57 1021.2
20260501210707 12 135 11.3 12.9 0.00 0.00 0.00 57 1021.2
20260501210206 12 139 11.3 12.9 0.00 0.00 0.00 57 1021.4
20260501205206 12 146 11.3 11.3 0.00 0.00 0.00 55 1021.5
20260501204707 13 145 9.7 11.3 0.00 0.00 0.00 55 1021.5
20260501203206 13 169 9.7 9.7 0.00 0.00 0.00 53 1021.7
20260501202705 13 148 9.7 12.9 0.00 0.00 0.00 53 1021.7
20260501202205 13 154 8.0 12.9 0.00 0.00 0.00 52 1021.7
20260501201204 13 159 11.3 12.9 0.00 0.00 0.00 52 1021.8
20260501200705 13 162 9.7 12.9 0.00 0.00 0.00 51 1021.8
20260501200205 13 160 9.7 11.3 0.00 0.00 0.00 51 1021.9
20260501195204 14 165 9.7 11.3 0.00 0.00 0.00 50 1021.9
20260501194207 14 171 8.0 11.3 0.00 0.00 0.00 50 1022.0
20260501191206 15 176 8.0 9.7 0.00 0.00 0.00 49 1022.2
20260501185706 16 177 9.7 11.3 0.00 0.00 0.00 49 1022.2
20260501185205 16 168 8.0 11.3 0.00 0.00 0.00 49 1022.2
20260501184706 17 176 9.7 11.3 0.00 0.00 0.00 49 1022.3
20260501184206 17 171 8.0 9.7 0.00 0.00 0.00 49 1022.3
20260501183204 18 173 8.0 9.7 0.00 0.00 0.00 48 1022.3
20260501182206 19 167 4.8 9.7 0.00 0.00 0.00 47 1022.2
20260501181704 20 176 4.8 8.0 0.00 0.00 0.00 47 1022.2
20260501180705 20 202 8.0 11.3 0.00 0.00 0.00 45 1022.2
20260501175204 21 215 6.4 8.0 0.00 0.00 0.00 44 1022.1
20260501174205 21 200 3.2 8.0 0.00 0.00 0.00 45 1022.2
20260501173704 21 203 3.2 4.8 0.00 0.00 0.00 45 1022.1
20260501172704 21 198 4.8 9.7 0.00 0.00 0.00 44 1022.1
20260501172204 22 191 8.0 11.3 0.00 0.00 0.00 43 1022.2
20260501171706 22 188 8.0 11.3 0.00 0.00 0.00 44 1022.3
20260501170705 22 203 8.0 11.3 0.00 0.00 0.00 42 1022.4
20260501170206 22 193 8.0 9.7 0.00 0.00 0.00 42 1022.7
20260501164205 22 180 6.4 12.9 0.00 0.00 0.00 40 1022.7
20260501163707 23 185 8.0 9.7 0.00 0.00 0.00 40 1022.7